Temperature
21 20 20 20 20 19 19 19 19 19 19 18 18 18 18 18 18 18 18 18 18 18 17 17 17 17 17 17 17 17 17 17 17 17 17 16 16 16 16 16 16 16 16
21 21 20 20 20 19 19 19 19 19 18 18 18 18 18 18 18 18 18 17 17 17 17 17 17 17 17 17 17 17 17 16 16 16 16 16 16 16 16 16 16 16 16
21 21 20 20 20 20 19 19 19 19 18 18 18 18 18 18 18 18 17 17 17 17 17 17 17 17 17 17 17 17 16 16 16 16 16 16 16 16 16 16 16 16 15
21 21 21 20 20 20 19 19 19 19 18 18 18 18 18 18 17 17 17 17 17 17 17 17 17 17 17 17 17 17 17 16 16 16 16 16 16 16 15 16 16 16 15
21 21 21 20 20 19 19 19 19 19 18 18 18 18 18 17 17 17 17 17 17 17 17 17 17 17 17 17 17 17 16 16 16 16 16 15 15 15 15 15 15 15 15
21 21 20 20 20 19 19 19 19 19 18 18 18 18 18 17 17 17 17 17 17 17 17 17 16 16 16 16 16 16 16 16 16 16 15 15 15 15 15 15 15 14 14
21 21 20 20 19 19 19 18 18 18 18 18 18 18 17 17 17 17 17 17 17 16 16 16 16 16 16 16 16 16 16 16 15 15 15 15 15 15 15 14 14 14 14
21 20 20 20 19 19 19 18 18 18 18 18 17 17 17 17 17 17 17 16 16 16 16 16 16 16 16 16 16 16 16 16 15 15 15 15 15 15 14 14 14 14 14
20 20 20 19 19 19 18 18 18 18 17 17 17 17 17 17 17 16 16 16 16 16 16 16 16 16 16 15 15 15 15 15 15 15 15 14 14 14 14 14 14 13 13
20 20 20 19 19 18 18 18 18 17 17 17 17 17 17 17 16 16 16 16 16 16 15 15 15 15 15 15 15 15 15 15 15 15 14 14 14 14 14 13 13 13 13
20 19 19 19 18 18 18 18 17 17 17 17 17 17 16 16 16 16 16 16 16 15 15 15 15 15 15 15 14 14 14 14 14 14 14 14 14 14 13 13 13 13 12
19 19 19 19 18 18 18 17 17 17 17 17 16 16 16 16 16 16 15 15 15 15 15 15 15 15 14 14 14 14 14 14 13 13 13 13 14 14 13 13 13 13 12
19 18 18 18 18 18 17 17 17 16 16 16 16 16 16 16 16 15 15 15 15 15 15 15 14 14 14 14 14 14 13 13 13 13 13 13 13 13 13 13 13 12 12
18 18 18 18 17 17 17 17 16 16 16 16 16 15 15 15 15 15 15 15 15 15 14 14 14 14 14 14 14 13 13 13 13 13 13 13 13 13 12 12 12 12 12
18 18 17 17 17 17 17 16 16 16 16 15 15 15 15 15 15 15 15 15 14 14 14 14 14 14 14 13 13 13 13 13 12 12 12 12 12 12 12 12 12 11 11
17 17 17 17 17 16 16 16 16 15 15 15 15 15 15 15 15 15 14 14 14 14 14 14 14 13 13 13 13 13 13 13 12 12 12 12 12 11 11 11 11 11 11
17 17 17 16 16 16 16 15 15 15 15 15 15 15 15 14 14 14 14 14 14 13 13 13 13 13 13 13 13 13 13 12 12 12 12 11 11 11 11 11 11 10 10
17 16 16 16 16 15 15 15 15 15 15 15 15 14 14 14 14 14 14 14 13 13 13 13 13 13 13 12 12 12 12 12 12 12 11 11 11 11 10 10 10 10 10
16 16 16 15 15 15 15 14 14 14 14 14 14 14 14 14 14 13 13 13 13 13 13 13 12 12 12 12 12 12 12 12 11 11 11 11 10 10 10 10 10 10 9
15 15 15 15 15 14 14 14 14 14 14 14 14 14 14 14 13 13 13 13 13 13 13 12 12 12 12 11 11 11 11 11 11 11 10 10 10 10 10 10 9 9 9
15 15 15 14 14 14 14 14 13 13 13 13 13 13 13 13 13 13 13 13 12 12 12 12 12 12 11 11 11 11 11 10 10 10 10 10 10 9 9 9 9 9 8
14 14 14 14 14 14 14 13 13 13 13 13 13 13 13 12 12 12 12 12 12 12 12 11 11 11 11 11 10 10 10 10 9 9 9 9 9 9 9 8 8 8 8
14 14 14 14 13 13 13 13 13 13 12 12 12 12 12 12 12 12 12 12 11 11 11 11 11 11 10 10 10 10 9 9 9 9 8 8 8 8 8 8 8 8 7
14 13 13 13 13 13 13 13 12 12 12 12 12 12 12 12 11 11 11 11 11 11 11 10 10 10 10 9 9 9 9 9 8 8 8 8 8 8 7 7 7 7 7
13 13 13 13 12 12 12 12 12 12 12 12 11 11 11 11 11 11 11 10 10 10 10 10 9 9 9 9 8 8 8 8 8 8 7 7 7 7 7 7 7 7 7
12 12 12 12 12 12 12 12 12 11 11 11 11 11 11 10 10 10 10 10 10 9 9 9 9 8 8 8 8 8 8 7 7 7 7 7 7 7 7 7 7 6 6
Wind_Speed
7 6 5 5 5 4 4 5 5 4 3 3 3 2 2 2 2 3 3 3 3 3 3 3 3 3 2 2 2 2 3 3 4 3 2 2 2 2 2 2 3 3 4
7 6 6 5 5 5 6 5 5 4 4 4 3 3 3 3 3 4 4 4 4 4 3 3 4 3 3 3 3 3 3 3 4 4 3 2 3 2 2 2 2 3 4
6 6 6 6 6 6 6 5 5 5 4 4 4 4 4 4 4 4 4 4 4 4 4 4 5 4 4 4 4 4 3 3 3 3 3 2 2 2 2 2 3 2 4
6 6 6 6 7 6 5 5 5 4 4 4 4 4 4 4 4 4 4 4 4 4 4 5 5 5 6 5 4 5 4 3 3 3 3 3 3 2 2 2 3 2 3
6 7 7 6 5 5 4 4 4 4 4 4 3 3 3 3 4 4 4 4 4 3 3 4 5 5 6 6 5 5 4 4 3 3 3 3 3 2 3 2 3 3 3
7 7 6 5 5 5 5 5 4 4 3 3 3 3 4 4 4 5 4 3 3 3 4 4 4 4 5 6 6 6 6 5 5 4 4 4 5 4 3 3 3 3 3
6 6 5 5 6 6 5 5 5 4 4 3 3 3 4 4 4 5 6 4 3 4 4 4 4 4 3 3 4 5 6 7 8 6 6 7 5 5 4 4 4 4 5
6 6 6 6 6 5 5 5 5 4 4 4 4 4 4 4 4 5 5 4 3 4 5 5 4 4 4 3 3 4 5 5 6 6 7 7 6 5 5 5 5 4 4
5 6 6 6 5 5 5 5 4 4 4 4 3 4 4 5 5 5 4 3 3 5 5 5 5 5 5 4 3 4 5 5 5 6 7 7 6 6 4 2 2 2 4
6 6 5 5 6 6 6 5 3 3 4 3 4 4 5 5 6 6 5 3 4 4 4 4 5 6 6 5 4 4 6 6 4 3 4 5 5 5 5 5 4 4 3
4 4 4 5 6 6 5 4 4 4 3 3 4 4 4 6 6 7 6 4 5 5 5 5 4 6 7 7 6 6 7 6 4 4 3 3 3 3 3 4 5 5 5
3 3 3 4 4 4 4 4 4 4 4 4 3 4 4 4 6 6 7 7 6 5 5 5 5 6 6 6 5 6 6 4 3 3 3 3 3 4 3 4 6 7 7
3 3 2 2 3 3 4 4 3 4 4 3 4 5 5 4 4 6 6 7 7 5 5 5 5 5 4 4 5 5 4 3 2 3 4 5 4 4 3 3 3 4 5
3 3 2 3 2 2 2 3 3 4 4 4 4 5 5 4 3 3 3 4 5 5 4 4 4 4 3 4 3 3 3 3 4 4 4 4 3 2 3 2 2 2 3
3 2 2 2 3 2 2 3 4 5 5 6 6 5 5 5 6 7 5 4 4 4 2 2 2 2 3 3 3 3 3 3 4 4 4 4 3 3 3 3 2 2 3
2 2 2 2 2 2 2 2 2 4 5 7 7 6 6 7 7 7 7 7 6 4 3 2 3 4 5 5 5 4 4 4 4 4 4 4 4 4 4 3 2 3 4
3 2 2 2 2 3 3 3 3 3 2 4 5 6 6 6 6 5 5 5 4 4 2 4 4 4 5 5 5 5 5 4 4 4 4 4 4 4 4 3 3 4 4
2 2 2 3 3 3 3 3 3 3 3 3 3 4 5 5 5 4 3 2 1 2 3 4 5 5 5 5 5 5 4 4 4 4 4 4 4 4 4 4 4 5 5
2 2 2 2 2 2 2 2 3 3 3 3 3 3 2 2 2 3 3 2 3 3 4 4 4 5 5 5 5 4 5 5 4 4 4 4 4 4 4 5 5 5 5
2 3 2 2 2 2 2 2 2 3 3 3 3 3 1 0 1 2 2 3 4 4 4 4 4 5 4 4 4 4 4 4 5 4 4 4 4 4 5 5 5 4 4
2 2 2 2 2 3 3 3 3 3 3 3 4 4 3 2 3 4 3 3 4 4 4 4 4 4 4 4 4 4 4 4 4 4 4 4 4 4 4 4 4 4 4
2 2 2 2 3 3 3 3 3 3 3 4 3 3 2 2 3 3 4 4 4 4 4 3 4 4 4 4 4 4 4 4 4 4 4 4 4 4 4 4 4 4 4
2 2 2 1 1 2 2 2 2 2 3 3 3 2 2 2 3 3 3 3 3 3 3 3 3 3 3 3 3 3 4 4 4 4 4 4 4 4 4 4 5 5 5
2 2 2 2 1 2 2 2 2 2 2 2 3 3 2 2 3 3 2 2 2 2 2 2 2 3 3 2 2 2 3 4 4 4 5 4 4 4 4 5 5 6 6
1 1 1 1 2 2 1 1 1 1 2 2 2 2 2 2 2 2 2 2 2 2 2 2 2 2 3 3 3 3 3 3 3 3 3 3 4 5 5 5 5 5 5
1 1 1 1 1 1 1 1 1 1 1 1 1 1 1 2 2 2 2 2 2 2 2 2 2 3 3 3 4 4 4 4 4 3 2 2 3 4 4 4 5 5 5
Wind_Direction
203 204 207 209 206 203 210 216 214 214 205 205 208 210 216 218 211 205 221 217 219 235 231 216 226 222 223 222 203 201 207 202 229 260 250 266 254 279 298 268 259 255 264
205 201 207 207 199 205 217 221 215 216 215 213 208 214 224 223 214 212 223 223 221 231 235 225 235 228 227 224 213 215 217 211 216 247 258 255 249 269 279 274 274 262 263
196 198 204 205 203 212 218 218 215 214 214 211 206 216 225 221 217 219 220 225 227 229 231 229 233 223 236 232 221 223 224 219 216 227 254 253 255 279 290 288 282 274 275
190 193 203 210 211 214 214 210 213 213 213 213 215 219 222 219 219 222 222 227 235 241 242 241 238 229 232 230 228 227 221 216 215 224 248 259 259 270 270 274 286 278 277
184 196 209 209 204 202 204 207 208 209 217 213 210 217 220 217 222 216 220 228 237 254 263 260 252 243 235 231 231 224 213 214 218 229 244 254 255 257 255 249 262 282 273
190 204 205 197 199 203 205 202 201 207 211 205 213 218 228 236 231 214 210 224 235 244 259 271 272 259 250 240 235 224 210 214 220 226 241 247 252 247 248 249 253 271 276
195 204 201 201 206 209 207 199 203 206 204 206 215 221 237 250 238 224 213 209 228 242 249 261 272 275 267 263 253 240 236 233 221 220 235 243 245 237 231 246 243 246 253
197 204 203 202 208 202 194 204 209 203 202 211 219 223 236 253 241 228 212 218 236 249 249 245 249 264 265 250 260 262 259 254 240 233 239 247 249 238 223 231 238 249 260
203 210 206 199 201 200 202 209 209 203 211 216 223 221 230 250 240 226 210 223 243 257 258 247 242 251 259 237 240 261 272 274 257 238 237 248 254 246 219 206 219 236 261
214 213 204 190 192 200 204 206 207 209 222 226 236 231 232 244 242 231 212 221 245 260 264 259 246 248 255 236 231 242 260 271 277 275 258 260 258 251 223 217 220 232 253
209 198 194 192 196 197 192 192 196 205 208 222 239 247 244 249 249 236 218 214 231 249 259 264 263 252 249 244 233 238 250 260 266 263 268 271 266 252 238 230 226 225 233
174 176 184 187 193 191 186 195 191 193 206 221 239 258 256 251 248 245 233 225 223 235 251 260 262 259 252 249 247 253 257 257 269 275 276 276 272 266 253 238 232 233 236
162 177 183 182 192 185 187 196 195 198 214 231 239 253 265 261 255 251 249 243 235 233 247 252 261 259 256 256 259 261 256 248 248 258 265 269 266 266 265 256 252 243 248
168 183 185 186 199 205 200 198 205 213 220 232 243 252 261 264 257 253 253 249 243 243 254 268 269 260 249 255 268 266 251 242 237 249 261 269 275 270 265 260 263 262 268
164 178 191 198 201 212 220 219 219 221 218 223 234 236 241 255 252 234 229 235 233 234 243 262 266 268 272 269 266 262 252 250 250 254 255 261 264 265 265 260 254 250 253
165 181 200 209 212 214 224 261 270 247 246 232 230 227 235 239 248 239 234 234 229 203 189 240 253 255 259 263 263 265 258 252 251 250 252 256 260 261 264 258 249 250 263
185 201 213 214 213 218 218 225 262 300 283 253 244 239 238 242 244 237 228 225 218 182 204 245 254 257 259 259 257 254 257 257 249 247 250 255 258 260 261 260 258 260 265
196 202 210 221 223 223 223 225 230 241 271 287 279 252 251 255 253 243 215 163 218 210 234 249 256 258 258 258 257 256 257 259 252 249 249 251 251 254 260 263 258 256 260
218 226 224 231 231 225 223 225 236 240 251 271 288 290 261 254 255 247 196 212 233 244 244 249 256 260 261 261 262 259 256 256 254 246 247 247 248 249 254 258 258 255 254
228 234 226 232 236 230 224 227 242 252 262 267 270 274 268 228 270 263 235 233 236 246 250 253 259 264 265 267 268 266 265 263 259 254 254 251 247 245 249 253 252 251 249
233 245 242 236 232 231 231 235 244 250 255 261 268 271 242 232 249 255 251 247 248 252 255 258 264 268 269 271 272 270 268 269 267 264 263 262 258 253 253 250 248 245 245
220 232 235 238 237 239 245 248 247 251 255 257 273 288 261 246 258 263 263 261 260 257 258 259 267 271 271 270 271 270 270 272 272 269 268 267 261 253 248 249 251 249 243
206 222 236 244 242 249 258 260 254 252 256 262 268 275 268 256 261 263 267 274 278 278 275 265 267 281 288 288 282 271 268 269 269 264 261 259 256 253 246 243 245 250 249
204 216 227 237 244 246 252 263 262 259 260 263 268 266 266 269 277 286 295 304 308 308 309 304 290 291 297 305 304 296 291 287 281 267 258 252 251 253 252 252 250 248 247
201 218 220 218 230 235 241 256 270 279 273 265 271 289 306 314 315 321 329 333 327 322 327 333 327 319 311 313 322 324 325 315 303 291 268 252 252 254 255 254 252 254 253
204 217 211 198 203 203 194 205 225 256 271 281 309 329 331 324 317 316 321 326 323 322 325 330 323 321 321 320 324 335 335 331 327 318 285 256 263 264 265 262 258 255 255
Height
1524 1525 1527 1528 1529 1530 1531 1531 1532 1533 1534 1534 1535 1535 1536 1536 1537 1537 1537 1537 1537 1537 1537 1537 1537 1537 1537 1536 1536 1535 1535 1534 1533 1532 1532 1531 1531 1530 1529 1528 1528 1527 1526
1521 1523 1524 1525 1526 1527 1528 1529 1530 1530 1531 1531 1532 1533 1533 1534 1534 1535 1535 1535 1535 1534 1535 1534 1534 1534 1534 1533 1533 1532 1532 1531 1530 1529 1528 1528 1528 1527 1526 1525 1525 1524 1523
1518 1520 1521 1522 1523 1524 1525 1526 1527 1527 1528 1528 1529 1530 1530 1531 1532 1532 1532 1532 1532 1531 1531 1531 1531 1531 1530 1530 1530 1529 1528 1528 1527 1526 1525 1525 1524 1523 1522 1522 1521 1520 1519
1515 1516 1517 1519 1519 1520 1522 1523 1523 1524 1525 1525 1526 1527 1527 1528 1528 1528 1528 1528 1528 1528 1528 1528 1528 1527 1527 1526 1526 1525 1525 1524 1523 1522 1521 1521 1520 1519 1519 1518 1517 1516 1515
1511 1513 1514 1515 1517 1517 1518 1519 1520 1521 1521 1522 1523 1523 1524 1524 1525 1525 1525 1525 1525 1524 1524 1524 1524 1523 1523 1523 1522 1521 1521 1520 1519 1518 1517 1517 1516 1515 1514 1514 1513 1512 1511
1508 1509 1511 1512 1513 1514 1515 1516 1517 1517 1518 1519 1519 1520 1521 1521 1521 1521 1521 1521 1521 1520 1520 1520 1520 1519 1519 1519 1518 1517 1517 1516 1514 1514 1513 1513 1512 1511 1511 1510 1509 1508 1507
1505 1506 1508 1509 1510 1511 1512 1513 1514 1514 1515 1516 1516 1517 1517 1517 1517 1517 1517 1517 1517 1517 1517 1516 1516 1515 1515 1514 1513 1513 1512 1511 1511 1510 1509 1508 1508 1507 1507 1506 1505 1504 1503
1502 1503 1504 1506 1507 1508 1509 1510 1511 1511 1512 1512 1513 1513 1513 1514 1514 1514 1514 1513 1513 1513 1513 1512 1512 1511 1511 1510 1509 1509 1508 1507 1507 1506 1505 1504 1504 1503 1502 1502 1501 1500 1499
1498 1499 1501 1502 1503 1505 1506 1507 1508 1509 1509 1509 1510 1510 1510 1510 1510 1510 1510 1509 1509 1508 1508 1508 1508 1507 1506 1506 1505 1503 1503 1502 1502 1501 1500 1500 1499 1499 1498 1497 1496 1495 1494
1495 1496 1498 1498 1500 1501 1503 1504 1505 1506 1506 1506 1506 1507 1507 1506 1506 1506 1506 1505 1504 1504 1504 1504 1503 1503 1502 1501 1500 1499 1497 1497 1496 1495 1495 1494 1494 1494 1493 1493 1492 1491 1490
1492 1494 1495 1495 1497 1498 1499 1500 1501 1502 1502 1502 1502 1502 1503 1503 1502 1502 1501 1501 1500 1499 1499 1499 1499 1498 1498 1497 1496 1494 1493 1492 1491 1490 1489 1489 1489 1488 1488 1488 1487 1486 1485
1490 1491 1491 1492 1493 1494 1495 1496 1497 1497 1498 1498 1498 1498 1498 1499 1498 1497 1497 1497 1496 1495 1495 1495 1495 1494 1493 1493 1492 1490 1490 1488 1487 1485 1484 1484 1484 1484 1483 1482 1482 1481 1480
1487 1488 1489 1490 1491 1491 1492 1492 1493 1493 1493 1494 1494 1494 1494 1494 1494 1493 1493 1492 1492 1491 1491 1491 1490 1489 1489 1488 1487 1486 1485 1484 1482 1481 1480 1480 1479 1479 1478 1477 1477 1476 1475
1484 1485 1486 1487 1488 1489 1489 1489 1490 1490 1490 1490 1490 1490 1490 1490 1489 1489 1488 1488 1488 1487 1486 1486 1486 1485 1484 1483 1483 1482 1481 1480 1479 1478 1477 1476 1475 1474 1473 1472 1471 1470 1470
1483 1483 1484 1484 1485 1485 1486 1486 1487 1487 1487 1487 1487 1487 1486 1485 1485 1486 1485 1484 1483 1483 1483 1482 1481 1480 1479 1479 1478 1477 1477 1476 1475 1474 1472 1471 1470 1469 1469 1468 1467 1466 1464
1481 1481 1482 1482 1482 1482 1482 1483 1483 1483 1484 1483 1483 1483 1482 1482 1482 1481 1481 1480 1480 1479 1478 1477 1476 1476 1475 1474 1473 1472 1472 1471 1470 1469 1468 1467 1466 1465 1464 1463 1462 1461 1460
1479 1479 1479 1479 1479 1479 1479 1479 1478 1479 1479 1479 1479 1479 1479 1478 1478 1477 1477 1476 1475 1475 1473 1472 1472 1471 1470 1470 1469 1468 1467 1466 1465 1464 1463 1462 1461 1460 1459 1458 1457 1456 1455
1477 1477 1476 1476 1476 1475 1475 1475 1475 1475 1474 1474 1475 1475 1474 1474 1474 1473 1472 1472 1471 1470 1469 1468 1467 1466 1466 1465 1464 1463 1462 1461 1460 1459 1458 1457 1456 1455 1454 1453 1452 1451 1450
1474 1474 1473 1473 1473 1472 1472 1472 1472 1471 1471 1470 1470 1470 1470 1469 1469 1468 1467 1467 1466 1465 1464 1464 1463 1462 1461 1460 1459 1458 1457 1456 1455 1454 1452 1452 1451 1450 1449 1448 1446 1445 1444
1471 1470 1470 1470 1470 1470 1469 1469 1468 1468 1467 1467 1466 1465 1465 1465 1464 1464 1463 1462 1461 1460 1460 1459 1458 1458 1456 1455 1454 1453 1451 1450 1449 1448 1447 1446 1445 1444 1443 1442 1441 1440 1439
1467 1467 1467 1467 1466 1466 1466 1465 1465 1464 1464 1463 1462 1462 1462 1461 1460 1460 1459 1458 1458 1457 1456 1455 1454 1453 1452 1450 1449 1447 1445 1444 1443 1442 1441 1440 1439 1438 1437 1437 1436 1435 1435
1464 1463 1463 1463 1463 1463 1462 1462 1461 1461 1461 1460 1459 1459 1458 1457 1457 1456 1455 1454 1453 1452 1451 1450 1449 1448 1447 1445 1443 1442 1440 1439 1438 1436 1435 1434 1434 1433 1432 1431 1431 1430 1429
1460 1460 1459 1459 1459 1459 1459 1459 1458 1458 1458 1457 1456 1456 1455 1454 1453 1452 1451 1450 1450 1449 1447 1446 1445 1443 1442 1440 1438 1437 1435 1434 1433 1431 1430 1429 1428 1427 1426 1425 1424 1424 1423
1457 1457 1456 1456 1456 1456 1456 1456 1456 1455 1454 1454 1453 1452 1452 1451 1450 1449 1448 1447 1446 1444 1443 1442 1440 1439 1437 1435 1433 1432 1430 1429 1428 1426 1425 1424 1423 1422 1421 1420 1419 1419 1418
1454 1454 1453 1453 1452 1452 1452 1453 1452 1452 1452 1451 1450 1449 1449 1448 1446 1445 1444 1443 1441 1440 1439 1437 1436 1434 1432 1430 1429 1427 1426 1424 1423 1421 1420 1418 1418 1417 1416 1415 1414 1414 1413
1451 1451 1450 1450 1450 1450 1449 1449 1449 1449 1449 1448 1447 1446 1445 1444 1443 1442 1440 1439 1437 1436 1434 1433 1431 1430 1428 1426 1425 1423 1422 1420 1418 1416 1415 1414 1413 1412 1411 1410 1409 1409 1408